sat.trackr.live / text

‹ back to catalog

STARLINK-4300

NORAD 53173 · 2022-083AT

PAYLOAD ACTIVE UNKNOWN

§ Identity

Operator
Country
US
Launch date
2022-07-17
Launch site
AFETR
Launch vehicle
Mass (kg)
RCS (m²)

Purposes: comms

External: N2YO · Heavens-Above · Gunter

§ Orbital elements

Epoch: 2026-09-19T22:26:37.720320Z

Period
93.79 min
Inclination
53.1611°
Eccentricity
0.0000978
Mean motion
15.35389838 rev/d
Perigee alt
459.1 km
Apogee alt
460.4 km
Semi-major
6,837.9 km
B*
-5.4516e-5
RAAN
334.4051°
Arg perigee
81.9147°
Mean anomaly
278.1967°
Rev number
23,119

§ Raw data

STARLINK-43001 53173U 22083AT  26262.93515880 -.00002281  00000+0 -54516-4 0  99902 53173  53.1611 334.4051 0000978  81.9147 278.1967 15.35389838231191

JSON: /api/v1/satellites/53173 · /tle

For live sub-satellite position, see the globe view (requires WebGL).

§ Visibility from observer

Set your observer location to see the next 7 days of passes ≥ 10°. The values pass through the URL so the page stays shareable.

No JS? Fill the form by hand. The geolocation button needs JavaScript.